Terug naar catalogus

BREEZE-M DEB

LostHEO
NORAD 34247·DEBRIS·🇷🇺 Russia

Gelanceerd Feb 28, 2006 vanaf Baikonur Cosmodrome

Loading…

Volgende Passages (komende 24 uur)

TLE

VerouderdSource: Space-Track

Epoch: Nov 24, 2025, 22:49 UTC

1 34247U 06006BN  25328.95072718  .00006534  00000-0  91087-2 0  9996
2 34247  52.0628 205.7583 4849180 225.6092  82.7814  5.63370186 12715

Volg BREEZE-M DEB in realtime met AllMySat

Download on the App Store